Regional Weather Roundup
Issued by NWS

Home | Current Version | Previous Version | Graphics & Text | Print | Product List | Glossary On
Versions: 1 2 3 4 5 6 7 8 9 10 11 12 13 14 15 16 17 18 19 20 21 22 23 24 25 26 27 28 29 30 31 32 33 34 35 36 37 38 39 40 41 42 43 44 45 46 47 48 49 50
000
ASUS43 KMPX 042210
RWRMN
WEATHER ROUNDUP FOR MINNESOTA
NATIONAL WEATHER SERVICE TWIN CITIES/CHANHASSEN MN
500 PM CDT MON MAY 04 2015


NOTE: "FAIR" INDICATES FEW OR NO CLOUDS BELOW 12,000 FEET WITH NO
SIGNIFICANT WEATHER AND/OR OBSTRUCTIONS TO VISIBILITY. N/A MEANS
CURRENT SKY AND/OR WEATHER CONDITIONS ARE NOT AVAILABLE.

MNZ060>063-068>070-042300-
   Twin Cities Metro

CITY           SKY/WX    TMP DP  RH WIND       PRES   REMARKS
TWIN CITIES    PTSUNNY   71  28  20 NE12      30.16F
ST PAUL        PTSUNNY   69  28  21 NE12G18   30.16F
CRYSTAL        PTSUNNY   72  27  18 NE8       30.15F
LAKEVILLE      PTSUNNY   68  36  30 NE8       30.16S
EDEN PRAIRIE   PTSUNNY   71  31  22 NE9       30.15F
SOUTH ST PAUL  PTSUNNY   71  28  20 N9        30.15F
LAKE ELMO      FAIR      70  32  24 NE7       30.16F
$$
MNZ001>005-007-008-013>017-022>024-027-028-042300-
   Northwest Minnesota

CITY           SKY/WX    TMP DP  RH WIND       PRES   REMARKS
BEMIDJI        SUNNY     65  24  21 E9        30.19S
HALLOCK        SUNNY     70  19  14 SW7       30.15F
ROSEAU         MOSUNNY   64  25  22 W8        30.17S
WARROAD        MOSUNNY   64  34  32 SW7G16    30.17F
THIEF RVR FALL MOSUNNY   66  25  20 W6        30.18F
CROOKSTON      SUNNY     66  25  20 CALM      30.17F
FOSSTON        SUNNY     70  21  16 NW7       30.19F
DETROIT LAKES  MOSUNNY   64  30  27 SW3       30.20F
MOORHEAD       MOSUNNY   68  23  18 NW8       30.18F
PARK RAPIDS    MOSUNNY   66  27  23 CALM      30.19F
MAHNOMEN       FAIR      66  25  20 N7        30.17F
$$
MNZ006-009>011-018-025>026-042300-
   North Central Minnesota

CITY           SKY/WX    TMP DP  RH WIND       PRES   REMARKS
BAUDETTE       PTSUNNY   64  26  23 S5        30.17F
FLAG ISLAND    PTSUNNY   54  34  47 NW9       30.16R
INTL FALLS     MOSUNNY   64  26  23 N6        30.19F
WASKISH        SUNNY     63  30  29 CALM      30.20F
BIG FORK       SUNNY     66  21  18 CALM      30.18F
LONGVILLE      PTSUNNY   64  18  16 N5        30.20F
GRAND RAPIDS   MOSUNNY   64  21  19 N5        30.20S
CRANE LAKE     MOSUNNY   61  25  25 N6        30.21S
ORR            SUNNY     64  19  17 NW9       30.16F
COOK           MOSUNNY   64  25  22 NW6       30.19S
WALKER         FAIR      64  24  22 SE5       30.19F
$$
MNZ012-019>021-037-042300-
   Northeast Minnesota

CITY           SKY/WX    TMP DP  RH WIND       PRES   REMARKS
DULUTH         PTSUNNY   66  19  16 N7        30.18S
ELY            SUNNY     63  21  20 N6        30.18S
HIBBING        MOSUNNY   66  18  15 NW8       30.18F
EVELETH        MOSUNNY   63  19  19 NW5       30.19F
DULUTH HARBOR  PTSUNNY   66  14  13 E5        30.18F
TWO HARBORS    MOSUNNY   68  34  28 S12       30.16S
SILVER BAY     MOSUNNY   64  25  22 S9        30.17R
GRAND MARAIS     N/A     47  36  65 SW9       30.18R
G MARAIS ARPRT SUNNY     61  19  20 W9G16     30.18S
$$
MNZ029>031-032-039>041-046>048-054>057-064-042300-
   West Central Minnesota

CITY           SKY/WX    TMP DP  RH WIND       PRES   REMARKS
FERGUS FALLS   PTSUNNY   66  30  26 NE6       30.18F
WHEATON        MOSUNNY   66  28  24 N8        30.18F
MORRIS         MOSUNNY   70  27  19 CALM      30.16F
ALEXANDRIA     PTSUNNY   65  30  27 N10       30.19F
ELBOW LAKE     FAIR      66  32  28 E7        30.18F
WADENA         MOSUNNY   63  32  31 N7        30.19F
GLENWOOD       PTSUNNY   66  27  22 NE5       30.19F
APPLETON       MOSUNNY   72  19  14 E9        30.16S
BENSON         PTSUNNY   70  16  12 NE3       30.17S
ORTONVILLE     MOSUNNY   70  21  16 E7        30.16S
MADISON        PTSUNNY   72  23  16 E7        30.15S
WILLMAR        FAIR      70  30  23 E8        30.18S
$$
MNZ033>034-036-042>043-049>051-058-059-042300-
   Central Minnesota

CITY           SKY/WX    TMP DP  RH WIND       PRES   REMARKS
ST CLOUD       PTSUNNY   68  30  24 N9        30.17F
SAUK CENTRE    FAIR      66  28  24 NW9       30.18F
PAYNESVILLE    CLOUDY    65  29  25 N6        30.18S
AITKIN         PTSUNNY   66   3   8 NW5       30.19S
PINE RIVER     PTSUNNY   64  34  32 E5        30.23F
BRAINERD       PTSUNNY   64  22  20 NW12      30.20F
STAPLES        MOSUNNY   64  27  24 CALM      30.19F
LONG PRAIRIE   FAIR      64  32  29 NW7       30.19F
LITTLE FALLS   MOSUNNY   66  30  26 CALM      30.19F
LITCHFIELD     PTSUNNY   70  28  21 N9        30.17S
BUFFALO        PTSUNNY   68  24  18 N6        30.18F
MAPLE LAKE     PTSUNNY   68  35  29 E8        30.17F
$$
MNZ037-044-045-052-053-042300-
   East Central Minnesota

CITY           SKY/WX    TMP DP  RH WIND       PRES   REMARKS
PRINCETON      PTSUNNY   70  28  21 N9G16     30.18F
MORA           PTSUNNY   64  28  25 NW6       30.20S
CAMBRIDGE      PTSUNNY   70  43  37 N7        30.16S
RUSH CITY      MOSUNNY   66  28  24 NE6       30.18F
MOOSE LAKE     PTSUNNY   68  28  22 N6        30.17F
HINCKLEY       FAIR      68  28  22 N7        30.18S
CLOQUET        PTSUNNY   64  10  12 N5        30.19S
MCGREGOR       PTSUNNY   63  21  20 NW6       30.20S
$$
MNZ071>073-080-081-089-090-097-098-042300-
   Southwest Minnesota

CITY           SKY/WX    TMP DP  RH WIND       PRES   REMARKS
MONTEVIDEO     PTSUNNY   73  27  17 E10       30.16F
GRANITE FALLS  MOSUNNY   71  28  20 NE8       30.16F
CANBY          PTSUNNY   71  23  16 NE5       30.16S
MARSHALL       PTSUNNY   72  25  17 E13G21    30.14F
REDWOOD FALLS  PTSUNNY   74  25  16 E9        30.14F
OLIVIA         PTSUNNY   68  27  21 NE7G18    30.16S
PIPESTONE      PTSUNNY   70  19  14 E10G17    30.14F
WINDOM         CLOUDY    70  27  19 E8        30.15F
WORTHINGTON    CLOUDY    68  28  22 E13G21    30.15F
JACKSON        PTSUNNY   68  21  17 NE14      30.16S
TRACY          MOSUNNY   72  28  19 NE10      30.15S
SLAYTON        CLOUDY    70  22  16 CALM      30.16S
$$
MNZ065>067-074>077-082>085-091>093-042300-
   South Central Minnesota

CITY           SKY/WX    TMP DP  RH WIND       PRES   REMARKS
MANKATO        PTSUNNY   68  34  28 NE10      30.16F
NEW ULM        FAIR      72  28  20 E5        30.15S
ST JAMES       PTSUNNY   70  23  17 NE8       30.16F
FAIRMONT       PTSUNNY   70  27  19 E14       30.14F
GLENCOE        PTSUNNY   71  32  24 NE7       30.15F
FARIBAULT      CLOUDY    68  30  24 N10       30.16F
OWATONNA       CLOUDY    66  30  26 E10       30.16S
WASECA         CLOUDY    64  32  29 E12       30.18S
ALBERT LEA     PTSUNNY   70  32  24 NE12      30.15S
$$
MNZ078>079-086>088-094>096-042300-
   Southeast Minnesota

CITY           SKY/WX    TMP DP  RH WIND       PRES   REMARKS
ROCHESTER      PTSUNNY   66  38  35 E8        30.17S
RED WING       PTSUNNY   70  28  21 NE6       30.15S
STANTON        CLOUDY    70  26  19 NE6       30.15S
DODGE CENTER   PTSUNNY   66  34  30 E12       30.17S
WINONA         PTSUNNY   70  36  28 E6        30.15F
AUSTIN         PTSUNNY   64  39  39 NE12      30.15S
PRESTON        PTSUNNY   64  41  42 N5        30.16S
$$
ABBREVIATIONS USED IN REMARKS
   TC - TEMPERATURES IN CELSIUS
  WCI - WIND CHILL INDEX
   HX - HEAT INDEX
  VSB - VISIBILITY
$$



USA.gov is the U.S. government's official web portal to all federal, state and local government web resources and services.